Location: Gälforsberget
(66.6500°N, 22.4167°E)
Time: 02:28:15
(UTC+00:00)

TSX-5 - Pass Details

Date: 11 April 2026
Orbit: 387 x 997 km, 68.9° (Epoch: 20 May)

Event Time Altitude Azimuth Distance (km) Brightness Sun altitude
Exits shadow 22:32:58 11° 233° (SW) 1,964 6.3 -14.8°
Maximum altitude 22:37:18 75° 148° (SSE) 571 3.7 -14.8°
Drops below altitude 10° 22:41:00 10° 64° (ENE) 1,679 6.7 -14.7°
Sets 22:42:57 0° 62° (ENE) 2,489 7.6 -14.7°
